Weather Roundup
Issued by NWS

Home | Current Version | Previous Version | Graphics & Text | Print | Product List | Glossary Off
Versions: 1 2 3 4 5 6 7 8 9 10 11 12 13 14 15 16 17 18 19 20 21 22 23 24 25 26 27 28 29 30 31 32 33 34 35 36 37 38 39 40 41 42 43 44 45 46 47 48 49 50

000
NZUS93 KARX 230710
HRRWXR

CURRENT HOURLY OBSERVATIONS ACROSS
MUCH OF THE UPPER MISSISSIPPI VALLEY
NATIONAL WEATHER SERVICE LA CROSSE WI
100 AM CST MON JAN 23 2017


...SOUTHEAST MINNESOTA...


CITY           SKY/WX    TMP DP  RH WIND       PRES   REMARKS
ROCHESTER      CLOUDY    32  32 100 NW9       29.79R WCI  24
ROCHESTER/MAYO CLOUDY    33  33 100 W7        29.79R WCI  27
WINONA         CLOUDY    34  34 100 CALM      29.79S FOG
AUSTIN         CLOUDY    30  30 100 NW12      29.80R FOG     WCI  21
ALBERT LEA     CLOUDY    32  32 100 NW3       29.81R FOG
DODGE CENTER   CLOUDY    30  30 100 CALM      29.79R FOG
PRESTON        CLOUDY    32  32  99 NW10      29.78S FOG     WCI  24
OWATONNA       CLOUDY    32  30  93 W5        29.81R FOG     WCI  27
FARIBAULT      NOT AVBL
$$

...ELSEWHERE IN MINNESOTA...


CITY           SKY/WX    TMP DP  RH WIND       PRES   REMARKS
MINNEAPOLIS    DRIZZLE   34  32  92 W5        29.79R FOG     WCI  30
INTNL FALLS    FOG       34  33  96 W3        29.72S VSB 1
DULUTH         CLOUDY    35  34  96 NW5       29.71S WCI  31
RED WING       CLOUDY    34  32  93 W6        29.79R FOG     WCI  29
REDWOOD FALLS  CLOUDY    33  29  85 W7        29.81F WCI  27
MANKATO        PTCLDY    32  30  92 W7        29.82R FOG     WCI  26
WORTHINGTON    CLOUDY    31  28  89 NW16      29.82F WCI  20
FAIRMONT       CLOUDY    30  28  93 NW7       29.84R WCI  23
$$

...SOUTHWEST WISCONSIN...


CITY           SKY/WX    TMP DP  RH WIND       PRES   REMARKS
LA CROSSE      CLOUDY    38  35  89 S3        29.79R FOG
PRAIRIE DU CHI CLOUDY    35  34  94 NW5       29.79S FOG     WCI  31
BOSCOBEL       CLOUDY    37  35  92 CALM      29.78S
LONE ROCK      CLOUDY    36  34  92 W5        29.77F WCI  32
PLATTEVILLE    CLOUDY    36  36 100 NW6       29.76F WCI  31
FORT MC COY    CLOUDY    34  34 100 CALM      29.78R
CAMP DOUGLAS   CLOUDY    35  35  99 W5        29.76R WCI  31
MAUSTON-NEW LI CLOUDY    35  34  99 NW3       29.75S FOG
VIROQUA        CLOUDY    34  34 100 CALM      29.77R
WIS DELLS      CLOUDY    35  34  99 NW3       29.75S FOG
$$

...ELSEWHERE IN WISCONSIN...


CITY           SKY/WX    TMP DP  RH WIND       PRES   REMARKS
MILWAUKEE      CLOUDY    39  35  86 NW6       29.72S WCI  35
MADISON        FOG       36  35  96 MISG      29.75S VSB 1
GREEN BAY      CLOUDY    37  37 100 NW7       29.72F FOG     WCI  32
EAU CLAIRE     FOG       34  34 100 SW3       29.76R VSB 1/4
BLACK RVR FLS  CLOUDY    35  35 100 CALM      29.76S FOG
MEDFORD        CLOUDY    33  33  99 W3        29.73S FOG
WAUSAU         CLOUDY    34  34 100 NW3       29.72R
WIS RAPIDS     FOG       35  35 100 CALM      29.75S VSB 1/2
MARSHFIELD     CLOUDY    33  33 100 NW7       29.73R FOG     WCI  27
RICE LAKE      FOG       35  35 100 SW3       29.76R VSB 1/2
$$

...NORTHEAST IOWA...


CITY           SKY/WX    TMP DP  RH WIND       PRES   REMARKS
WATERLOO       CLOUDY    35  33  92 NW7       29.82R FOG     WCI  29
DUBUQUE        CLOUDY    35  34  96 NW8       29.76F WCI  29
DECORAH        CLOUDY    36  34  93 CALM      29.77S
MASON CITY     CLOUDY    31  31 100 NW10      29.84R FOG     WCI  22
CHARLES CITY   CLOUDY    34  34 100 NW10      29.81S FOG     WCI  26
OELWEIN        CLOUDY    34  34 100 NW10      29.80S FOG     WCI  26
$$

...ELSEWHERE IN IOWA...


CITY           SKY/WX    TMP DP  RH WIND       PRES   REMARKS
DES MOINES     DRIZZLE   34  33  96 NW9       29.87S FOG     WCI  27
IOWA CITY      CLOUDY    37  34  89 NW9       29.81F WCI  30
FORT DODGE     CLOUDY    30  28  93 NW6       29.85S WCI  24
MARSHALLTOWN   CLOUDY    35  35 100 NW9       29.83R FOG     WCI  28
CEDAR RAPIDS   CLOUDY    35  33  92 NW8       29.79F WCI  29
$$

...NORTHERN ILLINOIS...


CITY           SKY/WX    TMP DP  RH WIND       PRES   REMARKS
CHICAGO-OHARE  CLOUDY    38  37  97 N9        29.69S FOG     WCI  31
CHICAGO-MIDWAY CLOUDY    39  35  86 N9        29.69S WCI  33
MOLINE         CLOUDY    38  34  85 N5        29.77S WCI  34
ROCKFORD       DRIZZLE   38  35  89 N5        29.75F WCI  34
PEORIA         CLOUDY    38  36  92 N9        29.74S WCI  31
$$

NOTE: "FAIR" INDICATES FEW OR NO CLOUDS BELOW 12,000 FEET WITH NO
SIGNIFICANT WEATHER AND/OR OBSTRUCTIONS TO VISIBILITY. WIND
SPEEDS ARE IN MILES-PER-HOUR.




USA.gov is the U.S. government's official web portal to all federal, state and local government web resources and services.